Regional Weather Roundup
Issued by NWS

Home | Current Version | Previous Version | Text Only | Print | Product List | Glossary On
Versions: 1 2 3 4 5 6 7 8 9 10 11 12 13 14 15 16 17 18 19 20 21 22 23 24 25 26 27 28 29 30 31 32 33 34 35 36 37 38 39 40 41 42 43 44 45 46 47 48 49 50
000
ASUS43 KMPX 140410
RWRMN
WEATHER ROUNDUP FOR MINNESOTA
NATIONAL WEATHER SERVICE TWIN CITIES/CHANHASSEN MN
1100 PM CDT SUN JUL 13 2014


NOTE: "FAIR" INDICATES FEW OR NO CLOUDS BELOW 12,000 FEET WITH NO
SIGNIFICANT WEATHER AND/OR OBSTRUCTIONS TO VISIBILITY. N/A MEANS
CURRENT SKY AND/OR WEATHER CONDITIONS ARE NOT AVAILABLE.

MNZ060>063-068>070-140500-
   Twin Cities Metro

CITY           SKY/WX    TMP DP  RH WIND       PRES   REMARKS
TWIN CITIES    PTCLDY    67  49  52 SW6       29.90F
ST PAUL        PTCLDY    64  49  57 SW5       29.90S
CRYSTAL        PTCLDY    66  48  52 W5        29.89S
BLAINE         MOCLDY    64  52  63 CALM      29.89F
LAKEVILLE      CLEAR     61  48  63 W3        29.91F
EDEN PRAIRIE   PTCLDY    64  50  60 W5        29.90F
SOUTH ST PAUL  CLEAR     65  50  58 SW3       29.90F
LAKE ELMO      FAIR      59  54  82 CALM      29.91F
$$
MNZ001>005-007-008-013>017-022>024-027-028-140500-
   Northwest Minnesota

CITY           SKY/WX    TMP DP  RH WIND       PRES   REMARKS
BEMIDJI        PTCLDY    53  49  86 W8        29.90S
HALLOCK        RAIN      54  52  94 NW15      29.93F
ROSEAU         CLOUDY    52  46  82 W10G17    29.88S
WARROAD        CLOUDY    50  46  87 W12G17    29.87R
THIEF RVR FALL CLOUDY    57  46  67 NW12      29.92S
CROOKSTON      CLOUDY    59  48  67 NW10      29.94S
FOSSTON        CLOUDY    55  46  71 NW10      29.93S
DETROIT LAKES  PTCLDY    59  50  72 NW6       29.95S
MOORHEAD       CLOUDY    64  46  52 NW10      29.96S
PARK RAPIDS    CLOUDY    57  51  80 W5        29.92S
$$
MNZ006-009>011-018-025>026-140500-
   North Central Minnesota

CITY           SKY/WX    TMP DP  RH WIND       PRES   REMARKS
BAUDETTE       CLOUDY    51  49  92 VRB7G17   29.84S
FLAG ISLAND    CLOUDY    52  50  93 NW21G26   29.82S
INTL FALLS     CLOUDY    52  51  97 W5        29.80F
WASKISH        CLOUDY    54  52  94 W20G25      N/A
BIG FORK       PTCLDY    52  48  87 SW5       29.86F
LONGVILLE      CLOUDY    54  52  94 CALM      29.90F
GRAND RAPIDS   CLOUDY    55  46  71 W8        29.88F
CRANE LAKE     LGT RAIN  52  48  87 CALM      29.83F
ORR            MOCLDY    52  48  87 CALM      29.81F
COOK           PTCLDY    50  48  93 SW3       29.85F
$$
MNZ012-019>021-037-140500-
   Northeast Minnesota

CITY           SKY/WX    TMP DP  RH WIND       PRES   REMARKS
DULUTH         MOCLDY    56  48  74 NW7       29.87F
ELY            PTCLDY    50  48  93 W5        29.83F
HIBBING        MOCLDY    53  48  83 SW3       29.87F
EVELETH        MOCLDY    52  50  93 SW3       29.87F
DULUTH HARBOR  CLOUDY    63  52  67 NW14      29.88S
TWO HARBORS    CLOUDY    54  48  82 W5        29.84F
SILVER BAY     CLOUDY    52  52 100 CALM      29.82F
GRAND MARAIS     N/A     51  49  92 W3        29.81S
G MARAIS ARPRT CLOUDY    50  46  87 W3        29.82S
$$
MNZ029>031-032-039>041-046>048-054>057-064-140500-
   West Central Minnesota

CITY           SKY/WX    TMP DP  RH WIND       PRES   REMARKS
FERGUS FALLS   CLOUDY    63  45  51 N9        29.95S
WHEATON        PTCLDY    61  48  63 NW7       29.99R
MORRIS         CLEAR     57  48  72 NW6       29.95S
ALEXANDRIA     PTCLDY    63  49  60 NW8       29.96R
WADENA         CLOUDY    59  50  72 NW3       29.93S
GLENWOOD       CLEAR     57  50  77 NW7       29.95S
APPLETON       CLEAR     61  50  67 NW6       29.95S
BENSON         CLEAR     57  48  72 CALM      29.95S
ORTONVILLE     CLEAR     66  46  48 NW7       29.96S
MADISON        CLEAR     63  52  67 W6        29.97R
WILLMAR        FAIR      61  48  63 NW5       29.96R
$$
MNZ033>034-036-042>043-049>051-058-059-140500-
   Central Minnesota

CITY           SKY/WX    TMP DP  RH WIND       PRES   REMARKS
ST CLOUD       MOCLDY    63  49  60 NW5       29.91R
SAUK CENTRE    FAIR      60  48  64 W5        29.94S
PAYNESVILLE    CLEAR     52  50  91 CALM      29.94S
AITKIN         PTCLDY    57  52  82 CALM      29.90S
PINE RIVER     CLOUDY    57  50  77 NW6       29.95F
BRAINERD       MOCLDY    64  49  57 N13       29.92R
STAPLES        CLOUDY    59  46  63 NW7       29.93S
LONG PRAIRIE   MOCLDY    59  46  63 W6        29.94S
LITTLE FALLS   PTCLDY    57  48  72 CALM      29.92S
LITCHFIELD       N/A     64  50  59 W3        29.94R
BUFFALO        CLEAR     64  50  61 W5        29.92S
MAPLE LAKE     CLEAR     61  52  72 CALM      29.92S
$$
MNZ037-044-045-052-053-140500-
   East Central Minnesota

CITY           SKY/WX    TMP DP  RH WIND       PRES   REMARKS
PRINCETON      MOCLDY    63  54  72 CALM      29.91R
MORA           PTCLDY    59  50  72 CALM      29.91R
CAMBRIDGE      PTCLDY    63  52  67 CALM      29.88S
RUSH CITY      CLOUDY    62  52  71 CALM      29.89S
MOOSE LAKE     RAIN      55  52  88 N10       29.88R
HINCKLEY       CLOUDY    63  52  67 W5        29.88S
CLOQUET        CLOUDY    55  46  71 W5        29.88F
MCGREGOR       CLOUDY    55  52  88 NW3       29.91S
$$
MNZ071>073-080-081-089-090-097-098-140500-
   Southwest Minnesota

CITY           SKY/WX    TMP DP  RH WIND       PRES   REMARKS
MONTEVIDEO     CLEAR     63  48  59 NW5       29.96S
GRANITE FALLS  CLEAR     58  53  82 W5        29.97S
CANBY          CLEAR     58  51  76 W6        29.99S
MARSHALL       CLEAR     57  48  72 W9        29.96S
REDWOOD FALLS  PTCLDY    63  51  65 W8        29.95R
OLIVIA         CLEAR     57  52  82 W6        29.94S
PIPESTONE      CLEAR     64  48  55 NW6       30.01S
WINDOM         CLEAR     61  50  67 NW5       29.98S
WORTHINGTON    CLEAR     59  52  77 NW7       30.00S
JACKSON        CLEAR     61  54  77 CALM      29.99R
TRACY          CLEAR     63  51  64 W5        29.99R
SLAYTON        CLEAR     57  51  78 CALM      30.01S
$$
MNZ065>067-074>077-082>085-091>093-140500-
   South Central Minnesota

CITY           SKY/WX    TMP DP  RH WIND       PRES   REMARKS
MANKATO        CLEAR     63  48  59 W5        29.94S
NEW ULM        CLEAR     59  55  88 W3        29.95S
ST JAMES       CLEAR     61  54  77 W6        29.97S
FAIRMONT       MOCLDY    63  52  67 NW3       29.97R
GLENCOE        CLEAR     65  47  53 W5        29.92F
FARIBAULT      CLEAR     61  52  72 CALM      29.93F
OWATONNA       CLEAR     57  52  82 CALM      29.94S
WASECA         CLEAR     55  46  71 CALM      29.96S
ALBERT LEA     CLEAR     63  50  63 CALM      29.95S
$$
MNZ078>079-086>088-094>096-140500-
   Southeast Minnesota

CITY           SKY/WX    TMP DP  RH WIND       PRES   REMARKS
ROCHESTER      CLEAR     60  53  77 NW8       29.95S
RED WING       CLEAR     59  54  82 CALM      29.90S
STANTON        CLEAR     60  51  73 SW3       29.91F
DODGE CENTER   CLEAR     64  52  63 W5        29.94F
WINONA         CLEAR     63  55  77 NW5       29.91S
AUSTIN         CLEAR     64  46  52 W2        29.94S
PRESTON        CLEAR     62  53  73 NW7       29.94S
$$
ABBREVIATIONS USED IN REMARKS
   TC - TEMPERATURES IN CELSIUS
  WCI - WIND CHILL INDEX
   HX - HEAT INDEX
  VSB - VISIBILITY
$$


USA.gov is the U.S. government's official web portal to all federal, state and local government web resources and services.